DW9657 Weather Reports


Display with metric or nautical units.
time (UTC)temp
F
wind
direction
speed
MPH
gust
MPH
rain 1hr
in
rain 24hr
in
rain mn
in
humidity
%
barometer
mb
20260510174838 59 232 1.0 5.0 0.00 0.06 0.00 52 1017.7
20260510174354 59 325 0.0 6.0 0.00 0.06 0.00 43 1017.6
20260510173817 59 307 2.0 12.0 0.00 0.06 0.00 41 1017.7
20260510173333 58 279 3.0 12.0 0.00 0.06 0.00 42 1017.7
20260510172835 58 282 3.0 5.0 0.00 0.06 0.00 46 1017.7
20260510172330 57 35 2.0 6.0 0.00 0.06 0.00 49 1017.7
20260510171833 57 308 2.0 6.0 0.00 0.06 0.00 55 1017.9
20260510171337 57 287 0.0 3.0 0.00 0.06 0.00 56 1017.9
20260510170833 57 287 1.0 5.0 0.00 0.06 0.00 53 1018.0
20260510170354 57 232 2.0 5.0 0.00 0.06 0.00 51 1018.1
20260510165829 57 289 2.0 5.0 0.00 0.06 0.00 44 1018.1
20260510165352 57 267 2.0 6.0 0.00 0.06 0.00 56 1018.1
20260510164827 57 80 2.0 7.0 0.00 0.06 0.00 51 1018.1
20260510164331 57 266 1.0 7.0 0.00 0.06 0.00 45 1018.1
20260510163855 57 306 0.0 6.0 0.00 0.06 0.00 46 1018.1
20260510163331 57 251 4.0 6.0 0.00 0.06 0.00 46 1018.1
20260510162834 56 249 3.0 6.0 0.00 0.06 0.00 46 1018.1
20260510162330 56 293 3.0 7.0 0.00 0.06 0.00 44 1018.2
20260510161854 56 308 1.0 11.0 0.00 0.06 0.00 47 1018.2
20260510161329 56 241 2.0 11.0 0.00 0.06 0.00 48 1018.1
20260510160833 56 251 2.0 10.0 0.00 0.06 0.00 50 1018.1
20260510160357 56 306 2.0 7.0 0.00 0.06 0.00 45 1018.0
20260510155833 56 283 2.0 9.0 0.00 0.06 0.00 49 1018.0
20260510155354 55 298 3.0 9.0 0.00 0.06 0.00 48 1018.1
20260510154829 55 267 2.0 6.0 0.00 0.06 0.00 51 1017.9
20260510154332 55 276 2.0 5.0 0.00 0.06 0.00 52 1017.9
20260510153829 55 350 0.0 5.0 0.00 0.06 0.00 54 1017.9
20260510153334 55 329 1.0 4.0 0.00 0.06 0.00 54 1017.9
20260510152900 54 293 2.0 5.0 0.00 0.06 0.00 51 1017.9
20260510152333 54 287 1.0 5.0 0.00 0.06 0.00 51 1017.9
20260510151829 54 303 1.0 6.0 0.00 0.06 0.00 49 1017.8
20260510151333 54 293 1.0 5.0 0.00 0.06 0.00 51 1017.8
20260510150858 53 301 2.0 4.0 0.00 0.06 0.00 50 1017.6
20260510150335 53 289 2.0 9.0 0.00 0.06 0.00 51 1017.7
20260510145840 53 312 3.0 9.0 0.00 0.06 0.00 52 1017.5
20260510145357 53 261 5.0 9.0 0.00 0.06 0.00 55 1017.6
20260510144820 53 265 4.0 10.0 0.00 0.06 0.00 54 1017.4
20260510144359 52 240 5.0 10.0 0.00 0.06 0.00 54 1017.4
20260510143820 52 260 4.0 8.0 0.00 0.06 0.00 57 1017.3
20260510143340 52 326 1.0 3.0 0.00 0.06 0.00 60 1017.3
20260510142821 51 302 0.0 3.0 0.00 0.06 0.00 60 1017.3
20260510142332 51 297 1.0 4.0 0.00 0.06 0.00 59 1017.2
20260510141821 51 268 2.0 5.0 0.00 0.06 0.00 60 1017.1
20260510141333 51 261 3.0 5.0 0.00 0.06 0.00 60 1017.2
20260510140820 51 280 1.0 5.0 0.00 0.06 0.00 59 1017.1
20260510140333 51 296 1.0 4.0 0.00 0.06 0.00 60 1017.2
20260510135837 51 296 2.0 4.0 0.00 0.06 0.00 60 1017.2
20260510135401 50 297 0.0 3.0 0.00 0.06 0.00 63 1017.2
20260510134837 50 298 1.0 3.0 0.00 0.06 0.00 63 1017.2
20260510134333 50 299 1.0 3.0 0.00 0.06 0.00 66 1017.2
20260510133817 50 300 1.0 2.0 0.00 0.06 0.00 70 1017.2
20260510133333 49 299 0.0 4.0 0.00 0.06 0.00 69 1017.1
20260510132818 49 299 1.0 4.0 0.00 0.06 0.00 70 1017.2
20260510132334 49 311 0.0 2.0 0.00 0.06 0.00 71 1017.2
20260510131837 48 311 0.0 3.0 0.00 0.06 0.00 74 1017.1
20260510131333 48 311 1.0 3.0 0.00 0.06 0.00 76 1016.9
20260510130858 48 309 0.0 2.0 0.00 0.06 0.00 76 1016.9
20260510130339 48 277 0.0 1.0 0.00 0.06 0.00 77 1016.9
20260510125836 47 276 0.0 1.0 0.00 0.06 0.00 78 1016.9
20260510125332 47 277 0.0 4.0 0.00 0.06 0.00 78 1016.8
20260510124834 47 274 1.0 4.0 0.00 0.06 0.00 80 1016.7
20260510124329 47 345 1.0 2.0 0.00 0.06 0.00 81 1016.5
20260510123832 47 345 0.0 2.0 0.00 0.06 0.00 82 1016.6
20260510123354 46 345 1.0 2.0 0.00 0.06 0.00 83 1016.6
20260510122828 46 359 0.0 1.0 0.00 0.06 0.00 85 1016.6
20260510122325 46 359 0.0 1.0 0.00 0.06 0.00 86 1016.5
20260510121850 46 359 0.0 2.0 0.00 0.06 0.00 87 1016.5
20260510121333 46 359 1.0 2.0 0.00 0.06 0.00 87 1016.4
20260510120830 45 359 0.0 2.0 0.00 0.06 0.00 88 1016.4
20260510120335 45 359 0.0 2.0 0.00 0.06 0.00 88 1016.3
20260510115832 45 358 0.0 1.0 0.00 0.06 0.00 88 1016.3
20260510115326 45 358 0.0 3.0 0.00 0.06 0.00 88 1016.2
20260510114828 44 358 0.0 3.0 0.00 0.06 0.00 88 1016.1
20260510114324 44 358 0.0 1.0 0.00 0.06 0.00 88 1016.2
20260510113827 44 358 0.0 1.0 0.00 0.06 0.00 89 1016.0
20260510113350 43 358 0.0 1.0 0.00 0.06 0.00 89 1015.8
20260510112825 43 358 0.0 1.0 0.00 0.06 0.00 88 1015.6
20260510112322 42 358 0.0 1.0 0.00 0.06 0.00 87 1015.5
20260510111826 42 358 0.0 1.0 0.00 0.06 0.00 87 1015.4
20260510111351 42 360 0.0 1.0 0.00 0.06 0.00 87 1015.3
20260510110833 42 360 0.0 1.0 0.00 0.06 0.00 86 1015.1
20260510110330 42 360 0.0 1.0 0.00 0.06 0.00 86 1015.1
20260510105832 42 360 0.0 1.0 0.00 0.06 0.00 85 1015.0
20260510105335 42 360 0.0 1.0 0.00 0.06 0.00 85 1015.0
20260510104832 42 360 0.0 1.0 0.00 0.06 0.00 85 1015.0
20260510104356 42 360 0.0 0.0 0.00 0.06 0.00 85 1015.0
20260510103832 42 360 0.0 0.0 0.00 0.06 0.00 85 1014.9
20260510103335 42 360 0.0 1.0 0.00 0.06 0.00 85 1014.8
20260510102831 42 360 0.0 1.0 0.00 0.06 0.00 85 1014.8
20260510102335 42 360 0.0 1.0 0.00 0.06 0.00 84 1014.7
20260510101832 42 360 0.0 1.0 0.00 0.06 0.00 84 1014.7
20260510101336 42 360 0.0 1.0 0.00 0.06 0.00 84 1014.6
20260510100834 43 360 0.0 0.0 0.00 0.06 0.00 84 1014.5
20260510100338 43 360 0.0 1.0 0.00 0.06 0.00 84 1014.5
20260510095835 43 360 0.0 1.0 0.00 0.06 0.00 84 1014.4
20260510095331 43 360 0.0 1.0 0.00 0.06 0.00 84 1014.4
20260510094833 43 360 0.0 0.0 0.00 0.06 0.00 83 1014.3
20260510094329 43 360 0.0 0.0 0.00 0.06 0.00 83 1014.2
20260510093854 43 360 0.0 1.0 0.00 0.06 0.00 83 1014.2
20260510093337 44 360 0.0 2.0 0.00 0.06 0.00 83 1014.1
20260510092834 44 360 1.0 2.0 0.00 0.06 0.00 83 1014.1
20260510092340 44 360 0.0 1.0 0.00 0.06 0.00 83 1014.0
20260510091834 44 360 0.0 2.0 0.00 0.06 0.00 83 1013.9
20260510091329 44 360 0.0 3.0 0.00 0.06 0.00 83 1013.9
20260510090833 44 360 1.0 3.0 0.00 0.06 0.00 83 1013.9
20260510090331 45 360 1.0 2.0 0.00 0.06 0.00 83 1013.8
20260510085832 45 360 2.0 5.0 0.00 0.06 0.00 82 1013.5
20260510085330 45 1 2.0 5.0 0.00 0.06 0.00 82 1013.3
20260510084832 45 7 2.0 3.0 0.00 0.06 0.00 82 1013.2
20260510084324 45 360 2.0 5.0 0.00 0.06 0.00 82 1013.1
20260510083820 46 4 3.0 5.0 0.00 0.06 0.00 82 1013.0
20260510083324 46 8 1.0 5.0 0.00 0.06 0.00 81 1012.9
20260510082820 46 9 2.0 3.0 0.00 0.06 0.00 81 1012.8
20260510082323 46 10 2.0 3.0 0.00 0.06 0.00 80 1012.6
20260510081818 46 22 1.0 3.0 0.00 0.06 0.00 80 1012.6
20260510081341 46 14 1.0 6.0 0.00 0.06 0.00 80 1012.4
20260510080825 47 18 3.0 6.0 0.00 0.06 0.00 80 1012.3
20260510080403 47 15 3.0 6.0 0.00 0.06 0.00 79 1012.3
20260510075817 47 13 2.0 8.0 0.00 0.06 0.00 79 1012.2
20260510075342 47 31 2.0 8.0 0.00 0.06 0.00 79 1012.0
20260510074838 47 30 1.0 3.0 0.00 0.06 0.00 78 1011.9
20260510074341 47 4 1.0 3.0 0.00 0.06 0.00 77 1011.8
20260510073818 47 16 1.0 4.0 0.00 0.06 0.00 77 1011.7
20260510073342 48 20 1.0 4.0 0.00 0.06 0.00 76 1011.6
20260510072818 48 349 0.0 2.0 0.00 0.06 0.00 76 1011.4
20260510072342 48 348 0.0 0.0 0.00 0.06 0.00 76 1011.2
20260510071817 48 348 0.0 0.0 0.00 0.06 0.00 76 1011.1
20260510071336 48 348 0.0 0.0 0.00 0.06 0.00 76 1011.1
20260510070335 48 348 0.0 0.0 0.00 0.06 0.00 75 1010.9
20260510065831 49 348 0.0 1.0 0.00 0.06 0.00 76 1010.9
20260510065333 49 348 0.0 1.0 0.00 0.06 0.00 76 1010.8
20260510064830 49 348 0.0 1.0 0.00 0.06 0.00 75 1010.7
20260510064333 49 348 0.0 1.0 0.00 0.06 0.00 75 1010.6
20260510063829 49 349 0.0 1.0 0.00 0.06 0.00 75 1010.7
20260510063354 49 349 0.0 2.0 0.00 0.06 0.00 75 1010.6
20260510062858 49 348 1.0 5.0 0.00 0.06 0.00 75 1010.5
20260510062334 49 353 2.0 5.0 0.00 0.06 0.00 75 1010.4
20260510061838 50 358 2.0 3.0 0.00 0.06 0.00 75 1010.3
20260510061334 50 1 2.0 3.0 0.00 0.06 0.00 75 1010.3
20260510060835 50 2 3.0 3.0 0.00 0.06 0.00 75 1010.3
20260510060358 50 4 2.0 4.0 0.00 0.06 0.00 74 1010.4
20260510055853 51 5 3.0 4.0 0.00 0.06 0.00 74 1010.3
20260510055336 51 7 3.0 4.0 0.00 0.06 0.00 74 1010.3
20260510054831 51 3 2.0 3.0 0.00 0.06 0.00 74 1010.3
20260510054333 51 3 2.0 5.0 0.00 0.06 0.00 73 1010.3
20260510053828 51 359 3.0 5.0 0.00 0.06 0.00 73 1010.2
20260510053331 52 355 4.0 5.0 0.00 0.06 0.00 72 1010.2
20260510052857 52 360 3.0 5.0 0.00 0.06 0.00 72 1010.1
20260510052331 52 4 3.0 5.0 0.00 0.06 0.00 71 1010.1
20260510051834 53 2 3.0 6.0 0.00 0.06 0.00 71 1009.9
20260510051329 53 2 4.0 8.0 0.00 0.06 0.00 71 1009.8
20260510050824 53 355 4.0 8.0 0.00 0.06 0.00 71 1009.8
20260510050326 54 1 5.0 8.0 0.00 0.06 0.00 71 1009.7
20260510045844 54 355 6.0 8.0 0.00 0.06 0.00 70 1009.7
20260510045317 54 358 5.0 6.0 0.00 0.06 0.00 70 1009.7
20260510044842 55 357 5.0 8.0 0.00 0.06 0.00 71 1009.6
20260510044337 55 4 6.0 8.0 0.00 0.06 0.00 70 1009.5
20260510043820 55 2 5.0 10.0 0.00 0.06 0.00 70 1009.2
20260510043317 56 5 5.0 10.0 0.00 0.06 0.00 70 1009.1
20260510042841 56 3 6.0 10.0 0.00 0.06 0.00 69 1009.0
20260510042319 56 359 7.0 10.0 0.00 0.06 0.00 68 1009.0
20260510041842 57 6 4.0 8.0 0.00 0.06 0.00 66 1008.9
20260510041339 57 324 0.0 6.0 0.00 0.06 0.00 64 1008.7
20260510040821 57 320 1.0 6.0 0.00 0.06 0.00 63 1008.7
20260510040319 57 310 2.0 6.0 0.00 0.06 0.00 64 1008.6
20260510035856 57 307 0.0 3.0 0.00 0.06 0.06 66 1008.6
20260510035339 57 320 1.0 4.0 0.00 0.06 0.06 66 1008.5
20260510034833 57 310 1.0 6.0 0.00 0.06 0.06 65 1008.5
20260510034317 57 291 2.0 5.0 0.00 0.06 0.06 65 1008.4
20260510033833 57 324 3.0 5.0 0.00 0.06 0.06 66 1008.3
20260510033337 57 285 3.0 5.0 0.00 0.06 0.06 67 1008.1
20260510032833 57 283 3.0 6.0 0.00 0.06 0.06 70 1008.0
20260510032337 57 301 3.0 6.0 0.00 0.06 0.06 72 1007.8
20260510031833 57 291 3.0 5.0 0.00 0.06 0.06 75 1007.7
20260510031338 57 310 1.0 4.0 0.00 0.06 0.06 78 1007.6
20260510030835 57 311 2.0 4.0 0.00 0.06 0.06 80 1007.7
20260510030339 57 293 2.0 4.0 0.00 0.06 0.06 84 1007.3
20260510025835 57 262 0.0 1.0 0.00 0.06 0.06 88 1007.3
20260510025330 57 262 0.0 1.0 0.00 0.06 0.06 88 1007.1
20260510024834 58 262 0.0 2.0 0.00 0.06 0.06 88 1007.0
20260510024359 58 262 0.0 2.0 0.00 0.06 0.06 88 1006.8
20260510023834 58 262 0.0 0.0 0.00 0.06 0.06 88 1006.6
20260510023337 58 262 0.0 2.0 0.00 0.06 0.06 88 1006.4
20260510022833 58 262 1.0 2.0 0.00 0.06 0.06 88 1006.3
20260510022338 58 237 1.0 2.0 0.00 0.06 0.06 88 1006.3
20260510021834 58 237 0.0 1.0 0.00 0.06 0.06 88 1005.9
20260510021338 58 237 0.0 1.0 0.00 0.06 0.06 87 1005.8
20260510020832 58 237 0.0 2.0 0.00 0.06 0.06 87 1005.8
20260510020327 58 237 1.0 2.0 0.00 0.06 0.06 87 1005.8
20260510015831 58 237 1.0 2.0 0.00 0.06 0.06 87 1005.8
20260510015326 58 237 1.0 4.0 0.00 0.06 0.06 87 1005.7
20260510014829 58 237 2.0 4.0 0.00 0.06 0.06 87 1005.7
20260510014325 58 237 1.0 2.0 0.00 0.06 0.06 86 1005.5
20260510013829 58 237 1.0 2.0 0.00 0.06 0.06 86 1005.6
20260510013326 58 238 1.0 3.0 0.00 0.06 0.06 86 1005.4
20260510012823 58 238 2.0 3.0 0.00 0.06 0.06 86 1005.4
20260510012326 58 238 2.0 4.0 0.00 0.06 0.06 86 1005.3
20260510011822 58 238 2.0 4.0 0.00 0.06 0.06 86 1005.2
20260510011347 59 238 2.0 4.0 0.00 0.06 0.06 86 1005.2
20260510010830 59 240 2.0 4.0 0.00 0.06 0.06 85 1005.1
20260510010326 59 241 3.0 4.0 0.00 0.06 0.06 85 1005.3
20260510005828 59 241 3.0 4.0 0.00 0.06 0.06 85 1005.2
20260510005328 59 237 2.0 4.0 0.00 0.06 0.06 84 1004.9
20260510004827 59 237 3.0 5.0 0.00 0.06 0.06 84 1004.9
20260510004330 59 233 3.0 6.0 0.00 0.06 0.06 84 1004.8
20260510003829 59 235 4.0 8.0 0.00 0.06 0.06 84 1004.9
20260510003333 59 227 3.0 6.0 0.00 0.06 0.06 84 1004.7
20260510002831 60 227 3.0 9.0 0.00 0.06 0.06 84 1004.8
20260510002334 60 231 4.0 9.0 0.00 0.06 0.06 83 1004.7
20260510001829 60 232 3.0 5.0 0.00 0.06 0.06 83 1004.5
20260510001334 60 249 2.0 6.0 0.00 0.06 0.06 83 1004.6
20260510000830 60 233 3.0 4.0 0.00 0.06 0.06 83 1004.3
20260510000326 60 296 1.0 6.0 0.00 0.06 0.06 83 1004.4
20260509235852 60 248 3.0 10.0 0.00 0.06 0.06 83 1004.3
20260509235336 60 239 3.0 9.0 0.00 0.06 0.06 83 1004.3
20260509234901 60 247 3.0 6.0 0.00 0.06 0.06 83 1004.3
20260509234337 60 232 4.0 9.0 0.00 0.06 0.06 83 1004.1
20260509233842 60 237 3.0 8.0 0.00 0.06 0.06 83 1004.2
20260509233404 61 235 4.0 10.0 0.00 0.06 0.06 83 1004.2
20260509232820 61 218 6.0 10.0 0.00 0.06 0.06 83 1004.1
20260509232347 61 216 6.0 10.0 0.00 0.06 0.06 84 1004.1
20260509231824 60 235 5.0 10.0 0.00 0.06 0.06 84 1004.0
20260509231324 60 227 5.0 10.0 0.00 0.06 0.06 84 1004.0
20260509230826 60 232 4.0 12.0 0.00 0.06 0.06 85 1003.9
20260509230323 60 222 6.0 12.0 0.00 0.06 0.06 84 1003.9
20260509225824 60 217 7.0 11.0 0.00 0.06 0.06 84 1003.8
20260509225321 60 219 6.0 10.0 0.00 0.06 0.06 83 1003.8
20260509224825 60 234 5.0 10.0 0.00 0.06 0.06 82 1003.6
20260509224324 60 220 5.0 8.0 0.00 0.06 0.06 82 1003.5
20260509223827 61 217 4.0 9.0 0.00 0.06 0.06 82 1003.4
20260509223325 61 225 5.0 12.0 0.00 0.06 0.06 82 1003.4
20260509222822 61 235 5.0 12.0 0.00 0.06 0.06 82 1003.3
20260509222325 61 225 5.0 10.0 0.00 0.06 0.06 82 1003.3
20260509221849 61 224 6.0 10.0 0.00 0.06 0.06 82 1003.2
20260509221347 61 229 5.0 9.0 0.01 0.06 0.06 83 1003.2
20260509220830 61 234 5.0 9.0 0.01 0.06 0.06 83 1003.2
20260509220329 61 217 4.0 9.0 0.01 0.06 0.06 83 1003.1
20260509215833 61 216 4.0 10.0 0.01 0.06 0.06 83 1003.1
20260509215330 61 229 6.0 11.0 0.01 0.06 0.06 82 1003.2
20260509214831 61 235 4.0 11.0 0.01 0.06 0.06 82 1003.0
20260509214331 61 234 5.0 11.0 0.02 0.06 0.06 82 1003.0
20260509213833 61 235 5.0 11.0 0.02 0.06 0.06 82 1003.0
20260509213329 61 239 6.0 13.0 0.02 0.06 0.06 81 1003.0
20260509212852 61 232 7.0 13.0 0.02 0.06 0.06 82 1003.0
20260509212328 61 216 5.0 11.0 0.02 0.06 0.06 83 1003.0
20260509211831 60 238 6.0 9.0 0.02 0.06 0.06 82 1003.1
20260509211330 60 235 4.0 10.0 0.01 0.05 0.05 82 1003.2
20260509210834 60 231 6.0 10.0 0.01 0.05 0.05 79 1003.2
20260509210331 61 229 6.0 10.0 0.01 0.05 0.05 79 1003.4
20260509205826 61 227 5.0 14.0 0.02 0.05 0.05 78 1003.5
20260509205329 62 233 6.0 14.0 0.03 0.05 0.05 77 1003.5
20260509204827 62 241 8.0 12.0 0.05 0.05 0.05 73 1003.2
20260509204351 63 238 6.0 12.0 0.04 0.04 0.04 75 1002.8
20260509203833 63 247 6.0 10.0 0.04 0.04 0.04 78 1002.7
20260509203330 63 243 5.0 10.0 0.04 0.04 0.04 79 1002.4
20260509202835 63 233 5.0 11.0 0.04 0.04 0.04 79 1002.5
20260509202332 63 230 6.0 13.0 0.04 0.04 0.04 79 1002.4
20260509201830 62 231 7.0 15.0 0.04 0.04 0.04 82 1002.3
20260509201333 62 219 8.0 15.0 0.04 0.04 0.04 86 1002.3
20260509200854 61 235 7.0 12.0 0.04 0.04 0.04 88 1002.5
20260509200328 61 227 7.0 12.0 0.04 0.04 0.04 87 1002.6
20260509195831 61 235 4.0 13.0 0.03 0.03 0.03 83 1002.7
20260509195324 62 227 7.0 13.0 0.02 0.02 0.02 81 1002.8
20260509194821 63 237 7.0 14.0 0.00 0.00 0.00 81 1002.7
20260509194344 63 226 7.0 12.0 0.00 0.00 0.00 79 1002.5
20260509193827 64 210 7.0 13.0 0.00 0.00 0.00 76 1002.6
20260509193323 64 229 8.0 13.0 0.00 0.00 0.00 74 1002.5
20260509192826 65 233 8.0 13.0 0.00 0.00 0.00 74 1002.5
20260509192323 65 218 7.0 13.0 0.00 0.00 0.00 75 1002.6
20260509191820 65 228 8.0 12.0 0.00 0.00 0.00 75 1002.6
20260509191322 65 228 8.0 12.0 0.00 0.00 0.00 76 1002.7
20260509190844 65 244 6.0 11.0 0.00 0.00 0.00 74 1002.6
20260509190339 65 210 5.0 11.0 0.00 0.00 0.00 76 1002.7
20260509185821 65 205 5.0 11.0 0.00 0.00 0.00 77 1002.9
20260509185338 65 210 5.0 11.0 0.00 0.00 0.00 76 1003.0
20260509184820 64 220 7.0 11.0 0.00 0.00 0.00 78 1003.0
20260509184334 64 224 5.0 12.0 0.00 0.00 0.00 79 1003.0
20260509183835 64 214 7.0 12.0 0.00 0.00 0.00 79 1003.0
20260509183331 63 224 5.0 10.0 0.00 0.00 0.00 80 1003.2
20260509182833 63 236 4.0 10.0 0.00 0.00 0.00 80 1003.1
20260509182328 63 221 4.0 9.0 0.00 0.00 0.00 80 1003.3
20260509181830 62 235 4.0 9.0 0.00 0.00 0.00 80 1003.4
20260509181325 62 229 5.0 10.0 0.00 0.00 0.00 81 1003.4
20260509180819 62 217 3.0 10.0 0.00 0.00 0.00 80 1003.6
20260509180343 62 220 4.0 9.0 0.00 0.00 0.00 81 1003.5
20260509175824 62 221 3.0 8.0 0.00 0.00 0.00 82 1003.7
20260509175321 62 223 4.0 10.0 0.00 0.00 0.00 82 1003.8